Location: Eldred Sherwood Park Lake Dam
(42.9416°N, 93.5655°W)
Time: 21:47:14
(UTC+00:00)

Transit 4A - Pass Details

Date: 20 November 2024
Orbit: 862 x 980 km, 66.8° (Epoch: 02 December)

Event Time Altitude Azimuth Distance (km) Brightness Sun altitude
Rises 00:25:41 0° 334° (NNW) 3,655 11.2 -17.9°
Reaches altitude 10° 00:29:47 10° 360° (N) 2,723 10.2 -18.7°
Enters shadow 00:32:45 14° 28° (NNE) 2,460 9.8 -19.2°
